Stations météo

réclame
Mon MeteoGroup
Auch, France (7622): Température de l'air & dewpoint: 13.11.2017 20:00:00 - 19.11.2017 20:00:00 (CET)Auch, France (7622): Température de l'air 5cm: 13.11.2017 20:00:00 - 19.11.2017 20:00:00 (CET)Auch, France (7622): Température de l'air -20cm & Température de l'air -100cm: 13.11.2017 20:00:00 - 19.11.2017 20:00:00 (CET)Auch, France (7622): Vitesse du vent & gusts: 13.11.2017 20:00:00 - 19.11.2017 20:00:00 (CET)Auch, France (7622): Direction du vent: 13.11.2017 20:00:00 - 19.11.2017 20:00:00 (CET)Auch, France (7622): reduced air pressure: 13.11.2017 20:00:00 - 19.11.2017 20:00:00 (CET)Auch, France (7622): visibility: 13.11.2017 20:00:00 - 19.11.2017 20:00:00 (CET)Auch, France (7622): Ensoleillement: 13.11.2017 20:00:00 - 19.11.2017 20:00:00 (CET)Auch, France (7622): Quantités de précipitations: 13.11.2017 20:00:00 - 19.11.2017 20:00:00 (CET)
Date & Time tt [°C] td [°C] tt 5cm [°C] tt -20cm [°C] tt -100cm [°C] ff [km/h] ff [knt] fx [km/h] fx [knt] dd ppp [hPa] vv [km] sd [min] rr [mm]
19.11.2017 20:00:00 1,7 1,1 -1,9 8,2 13,4 3 2 5 3 SSW 1026,9 10 0 0,0
19.11.2017 19:00:00 3,3 1,7 -1,0 8,2 13,4 3 2 4 2 S 1026,6 17 0 0,0
19.11.2017 18:00:00 6,5 3,3 1,1 8,1 13,4 0 0 11 6 N 1026,1 20 4 0,0
19.11.2017 17:00:00 9,3 4,3 10,3 8,0 13,4 6 3 12 6 N 1025,6 20 60 0,0
19.11.2017 16:00:00 10,0 4,1 12,9 7,8 13,4 5 3 13 7 NNE 1025,3 20 60 0,0
19.11.2017 15:00:00 10,1 4,0 13,9 7,7 13,4 8 4 14 7 N 1025,6 20 60 0,0
19.11.2017 14:00:00 9,6 4,6 13,2 7,5 13,4 9 5 16 8 N 1026,2 19 60 0,0
19.11.2017 13:00:00 8,1 7,7 10,5 7,5 13,5 9 5 14 8 NNE 1026,6 18 60 0,0
19.11.2017 12:00:00 5,3 5,3 7,1 7,4 13,5 6 3 11 6 N 1027,1 10 60 0,0
19.11.2017 11:00:00 3,1 3,1 5,7 7,5 13,5 9 5 12 7 N 1027,3 1,5 60 0,0
19.11.2017 10:00:00 1,9 1,9 0,0 7,5 13,5 6 3 9 5 S 1026,9 7 60 0,0
19.11.2017 09:00:00 -0,3 -0,3 -0,8 7,6 13,5 6 3 9 5 S 1026,9 0,4 9 0,0
19.11.2017 08:00:00 -0,7 -0,7 -1,0 7,7 13,5 7 4 16 8 S 1026,5 0,4 0 0,0
19.11.2017 07:00:00 -0,8 -0,8 -1,0 7,8 13,5 11 6 15 8 S 1026,1 0,3 0 0,0
19.11.2017 06:00:00 -0,6 -0,6 -0,9 7,9 13,5 10 5 14 8 S 1026,0 0,4 0 0,0
19.11.2017 05:00:00 -0,8 -0,8 -1,9 8,0 13,5 11 6 14 8 S 1025,7 0,3 0 0,0
19.11.2017 04:00:00 -1,0 -1,0 -4,9 8,1 13,5 10 5 12 7 SSW 1025,8 2,1 0 0,0
19.11.2017 03:00:00 -1,2 -1,2 -5,1 8,3 13,6 3 2 4 2 S 1025,9 0,7 0 0,0
19.11.2017 02:00:00 -0,9 -0,9 -4,5 8,4 13,5 0 0 6 3 N 1025,9 2,4 0 0,0
19.11.2017 01:00:00 0,4 0,4 -1,4 8,5 13,6 5 3 13 7 SSW 1025,9 5 0 0,0
19.11.2017 00:00:00 0,8 0,8 -0,7 8,6 13,6 10 6 13 7 SSW 1026,0 6 0 0,0
18.11.2017 23:00:00 1,3 1,3 -0,6 8,7 13,6 7 4 11 6 SSW 1026,0 6 0 0,0
18.11.2017 22:00:00 1,3 1,3 -3,1 8,8 13,6 9 5 11 6 SSW 1025,9 7 0 0,0
18.11.2017 21:00:00 1,8 1,5 -2,5 8,8 13,6 0 0 3 2 N 1025,9 1,3 0 0,0
18.11.2017 20:00:00 1,9 1,5 -2,4 8,8 13,6 3 1 7 4 S 1025,7 10 0 0,0
18.11.2017 19:00:00 3,4 2,4 -1,5 8,8 13,6 0 0 4 2 N 1025,7 16 0 0,0
18.11.2017 18:00:00 5,6 3,3 0,1 8,7 13,6 3 2 6 4 SSW 1025,3 20 5 0,0
18.11.2017 17:00:00 9,1 4,9 10,3 8,6 13,6 5 3 8 5 N 1025,0 20 60 0,0
18.11.2017 16:00:00 10,2 5,6 13,6 8,4 13,6 5 3 9 5 NNW 1024,5 20 60 0,0
18.11.2017 15:00:00 9,5 6,2 11,6 8,3 13,6 6 3 10 5 N 1024,5 16 50 0,0
18.11.2017 14:00:00 8,6 7,1 9,8 8,1 13,7 0 0 12 6 N 1024,8 16 1 0,0
18.11.2017 13:00:00 8,1 7,8 9,6 8,0 13,7 8 4 12 7 NW 1025,2 15 0 0,0
18.11.2017 12:00:00 8,0 8,0 8,9 8,0 13,7 4 2 11 6 W 1025,6 18 0 0,0
18.11.2017 11:00:00 7,4 7,4 7,8 8,0 13,7 6 3 10 6 NNW 1025,7 12 0 0,0
18.11.2017 10:00:00 7,1 7,1 7,0 7,9 13,7 4 2 11 6 NW 1025,5 3,7 0 0,0
18.11.2017 09:00:00 6,9 6,9 6,4 7,9 13,7 6 3 14 7 W 1025,0 4,3 0 0,0
18.11.2017 08:00:00 6,2 6,2 5,2 7,9 13,7 0 0 8 4 N 1024,5 1,9 0 0,0
18.11.2017 07:00:00 5,1 5,1 3,8 8,0 13,7 5 3 10 5 S 1024,3 0,3 0 0,0
18.11.2017 06:00:00 3,6 3,6 2,2 8,1 13,8 4 2 10 6 S 1024,4 0,2 0 0,0
18.11.2017 05:00:00 2,1 2,1 0,3 8,1 13,8 10 5 13 7 S 1024,5 7 0 0,0
18.11.2017 04:00:00 1,9 1,9 0,6 8,2 13,8 9 5 16 9 S 1024,5 7 0 0,0
18.11.2017 03:00:00 2,1 2,1 1,0 8,3 13,8 12 6 16 8 S 1024,1 6 0 0,0
18.11.2017 02:00:00 2,3 2,3 0,5 8,4 13,8 11 6 14 7 S 1023,9 6 0 0,0
18.11.2017 01:00:00 2,8 2,7 1,1 8,4 13,8 7 4 13 7 SSW 1024,1 6 0 0,0
18.11.2017 00:00:00 3,4 3,1 2,0 8,5 13,8 9 5 15 8 S 1024,2 8 0 0,0
17.11.2017 23:00:00 3,9 3,5 2,8 8,5 13,8 12 6 15 8 S 1024,1 9 0 0,0
17.11.2017 22:00:00 4,3 3,9 2,4 8,5 13,8 10 5 12 6 S 1024,1 11 0 0,0
17.11.2017 21:00:00 5,0 4,4 0,3 8,5 13,8 10 5 12 6 S 1023,9 13 0 0,0
17.11.2017 20:00:00 5,1 3,8 0,7 8,5 13,9 4 2 6 4 S 1023,9 18 0 0,0
17.11.2017 19:00:00 6,2 4,4 1,6 8,4 13,9 3 2 5 3 SSW 1023,5 20 0 0,0
17.11.2017 18:00:00 8,7 4,9 2,8 8,3 13,9 3 2 7 4 SSW 1022,9 20 6 0,0
17.11.2017 17:00:00 13,6 5,0 12,9 8,1 13,9 5 3 13 7 NW 1022,4 20 60 0,0
17.11.2017 16:00:00 14,8 5,0 16,7 7,9 13,9 8 4 13 7 NW 1022,2 20 60 0,0
17.11.2017 15:00:00 15,1 5,6 18,3 7,7 13,9 6 4 12 6 NW 1022,2 20 60 0,0
17.11.2017 14:00:00 14,6 5,7 18,0 7,5 13,9 8 5 16 8 NNW 1022,5 20 60 0,0
17.11.2017 13:00:00 13,4 5,8 16,2 7,4 13,9 6 3 11 6 N 1023,1 20 60 0,0
17.11.2017 12:00:00 11,3 6,2 13,2 7,4 13,9 4 2 7 4 NE 1023,8 19 60 0,0
17.11.2017 11:00:00 8,6 5,9 8,1 7,4 14,0 6 3 12 7 S 1024,2 20 58 0,0
17.11.2017 10:00:00 4,7 4,7 2,6 7,5 14,0 9 5 13 7 S 1024,7 20 47 0,0
17.11.2017 09:00:00 1,5 1,5 -0,3 7,6 14,0 9 5 12 7 S 1025,0 15 40 0,0
17.11.2017 08:00:00 0,1 0,1 -1,8 7,7 14,0 8 4 14 8 SSW 1024,8 12 0 0,0
17.11.2017 07:00:00 -0,2 -0,2 -3,7 7,8 14,1 8 4 11 6 SSW 1024,6 10 0 0,0
17.11.2017 06:00:00 -0,7 -0,7 -3,7 7,9 14,0 0 0 6 3 N 1024,4 4,6 0 0,0
17.11.2017 05:00:00 -0,7 -0,7 -3,9 8,0 14,1 0 0 6 3 N 1024,1 6 0 0,0
17.11.2017 04:00:00 -0,3 -0,3 -3,9 8,1 14,1 3 1 4 2 S 1024,4 2,4 0 0,0
17.11.2017 03:00:00 0,1 0,1 -3,6 8,2 14,1 3 1 7 4 S 1024,4 4,3 0 0,0
17.11.2017 02:00:00 0,2 0,2 -3,4 8,3 14,1 4 2 5 3 S 1024,2 1,7 0 0,0
17.11.2017 01:00:00 0,9 0,9 -2,8 8,4 14,1 2 1 5 3 SSW 1024,4 3,9 0 0,0
17.11.2017 00:00:00 1,8 1,8 -2,6 8,4 14,1 5 3 9 5 SSW 1024,4 4,4 0 0,0
16.11.2017 23:00:00 1,2 1,1 -2,4 8,5 14,1 3 2 5 3 SSW 1024,4 2,4 0 0,0
16.11.2017 22:00:00 2,1 2,0 -2,2 8,5 14,1 2 1 3 2 S 1024,6 1,5 0 0,0
16.11.2017 21:00:00 2,5 2,2 -1,2 8,5 14,2 0 0 8 4 N 1024,5 4,7 0 0,0
16.11.2017 20:00:00 3,8 3,2 -0,5 8,5 14,2 3 1 3 2 S 1024,2 3,0 0 0,0
16.11.2017 19:00:00 5,2 3,8 0,8 8,5 14,2 0 0 5 3 N 1023,8 13 0 0,0
16.11.2017 18:00:00 7,1 4,7 1,8 8,4 14,2 3 1 6 3 SSW 1023,0 12 7 0,0
16.11.2017 17:00:00 9,8 5,6 9,2 8,2 14,2 7 4 11 6 N 1022,6 20 46 0,0
16.11.2017 16:00:00 11,0 6,1 13,2 8,0 14,2 9 5 14 8 N 1022,1 20 60 0,0
16.11.2017 15:00:00 10,8 6,2 13,3 7,8 14,2 8 4 14 8 NNE 1021,7 18 56 0,0
16.11.2017 14:00:00 10,9 6,0 14,9 7,7 14,2 9 5 14 8 NNE 1021,9 17 60 0,0
16.11.2017 13:00:00 10,5 5,9 14,1 7,6 14,2 6 3 10 5 NNE 1022,3 18 60 0,0
16.11.2017 12:00:00 8,9 4,3 11,1 7,6 14,2 3 1 9 5 NNE 1023,0 19 60 0,0
16.11.2017 11:00:00 6,6 5,1 6,4 7,7 14,3 5 3 8 4 S 1023,3 19 60 0,0
16.11.2017 10:00:00 2,6 2,6 1,8 7,8 14,3 6 3 8 4 S 1023,2 13 57 0,0
16.11.2017 09:00:00 0,1 0,1 -4,7 7,9 14,3 0 0 2 1 N 1023,3 9 35 0,0
16.11.2017 08:00:00 -2,2 -2,2 -5,3 8,0 14,3 3 1 5 3 S 1022,5 8 0 0,0
16.11.2017 07:00:00 -1,7 -1,7 -4,7 8,1 14,3 0 0 10 5 N 1022,2 6 0 0,0
16.11.2017 06:00:00 -1,3 -1,3 -4,0 8,2 14,3 6 3 9 5 SSW 1021,6 7 0 0,0
16.11.2017 05:00:00 -0,7 -0,7 -2,8 8,3 14,3 5 3 12 6 SSW 1021,6 7 0 0,0
16.11.2017 04:00:00 -0,6 -0,6 -2,1 8,4 14,4 9 5 12 7 SSW 1021,8 7 0 0,0
16.11.2017 03:00:00 -0,7 -0,7 -3,3 8,5 14,3 10 5 11 6 S 1022,1 7 0 0,0
16.11.2017 02:00:00 -0,4 -0,4 -3,8 8,6 14,4 6 3 9 5 SSW 1022,1 7 0 0,0
16.11.2017 01:00:00 -0,3 -0,3 -3,3 8,7 14,4 3 1 8 5 S 1022,0 6 0 0,0
16.11.2017 00:00:00 0,6 0,6 -3,3 8,8 14,4 8 4 10 5 SSW 1021,8 6 0 0,0
15.11.2017 23:00:00 0,4 0,3 -2,6 8,9 14,4 5 3 8 4 SSW 1022,0 5 0 0,0
15.11.2017 22:00:00 1,6 1,6 -2,5 8,9 14,4 6 3 9 5 SSW 1022,1 7 0 0,0
15.11.2017 21:00:00 0,8 0,5 -2,2 9,0 14,4 5 3 6 4 S 1022,3 7 0 0,0
15.11.2017 20:00:00 2,0 1,4 -1,7 9,0 14,4 3 1 3 2 S 1022,4 5 0 0,0
15.11.2017 19:00:00 3,4 2,1 -0,6 9,0 14,4 0 0 3 2 N 1022,1 13 0 0,0
15.11.2017 18:00:00 5,1 2,8 0,7 8,9 14,5 0 0 5 3 N 1021,6 20 3 0,0
15.11.2017 17:00:00 7,3 3,2 5,5 8,8 14,4 5 3 12 7 N 1021,2 20 0 0,0
15.11.2017 16:00:00 8,5 3,1 8,9 8,6 14,4 9 5 13 7 NNE 1021,3 20 37 0,0
15.11.2017 15:00:00 9,4 2,3 13,3 8,5 14,5 3 2 8 4 NNW 1021,3 20 60 0,0
15.11.2017 14:00:00 7,7 5,3 11,9 8,4 14,5 4 2 11 6 N 1022,0 19 60 0,0
15.11.2017 13:00:00 5,4 5,4 6,6 8,4 14,5 6 4 11 6 N 1022,9 13 43 0,0
15.11.2017 12:00:00 3,0 3,0 4,3 8,4 14,5 4 2 6 4 N 1024,0 1,5 2 0,0
15.11.2017 11:00:00 1,6 1,6 1,8 8,4 14,5 4 2 6 3 NNE 1024,5 0,4 0 0,0
15.11.2017 10:00:00 0,4 0,4 0,0 8,5 14,5 0 0 5 3 N 1024,6 0,2 0 0,0
15.11.2017 09:00:00 -0,4 -0,4 -1,6 8,6 14,5 3 2 5 3 S 1024,7 0,3 15 0,0
15.11.2017 08:00:00 -1,6 -1,6 -4,2 8,8 14,5 0 0 3 2 N 1024,6 13 0 0,0
15.11.2017 07:00:00 -1,9 -1,9 -5,2 8,9 14,5 0 0 3 1 N 1024,6 11 0 0,0
15.11.2017 06:00:00 -1,8 -1,8 -4,8 9,0 14,5 0 0 3 2 N 1024,5 11 0 0,0
15.11.2017 05:00:00 -1,6 -1,6 -4,3 9,1 14,5 0 0 9 5 N 1024,4 16 0 0,0
15.11.2017 04:00:00 -1,3 -1,3 -4,7 9,2 14,6 8 4 11 6 SSW 1025,0 13 0 0,0
15.11.2017 03:00:00 -0,8 -0,9 -3,6 9,4 14,5 4 2 14 8 SSW 1025,4 11 0 0,0
15.11.2017 02:00:00 -0,3 -0,4 -3,1 9,5 14,6 3 1 13 7 S 1025,5 10 0 0,0
15.11.2017 01:00:00 0,1 0,0 -2,9 9,6 14,6 6 4 12 6 SSW 1026,0 11 0 0,0
15.11.2017 00:00:00 0,1 -0,2 -2,9 9,7 14,6 5 3 12 7 S 1026,4 10 0 0,0
14.11.2017 23:00:00 0,7 0,4 -3,1 9,8 14,6 7 4 11 6 SSW 1026,7 12 0 0,0
14.11.2017 22:00:00 0,8 0,2 -1,8 9,8 14,6 5 3 14 7 SSW 1026,6 13 0 0,0
14.11.2017 21:00:00 1,6 0,7 -1,1 9,9 14,6 3 1 15 8 S 1026,6 16 0 0,0
14.11.2017 20:00:00 2,1 0,5 -0,8 10,0 14,6 8 4 15 8 S 1026,6 17 0 0,0
14.11.2017 19:00:00 4,4 2,1 1,0 9,9 14,6 0 0 6 3 N 1026,5 20 0 0,0
14.11.2017 18:00:00 6,3 2,0 1,4 9,9 14,6 0 0 17 9 N 1025,9 20 9 0,0
14.11.2017 17:00:00 9,1 2,0 9,8 9,8 14,6 14 7 19 11 N 1025,4 20 60 0,0
14.11.2017 16:00:00 10,1 1,5 12,7 9,7 14,6 12 6 26 14 NW 1025,2 20 60 0,0
14.11.2017 15:00:00 10,4 2,0 12,3 9,5 14,6 9 5 21 11 NW 1025,5 20 60 0,0
14.11.2017 14:00:00 9,9 2,0 12,7 9,4 14,6 13 7 24 13 NW 1026,1 20 58 0,0
14.11.2017 13:00:00 9,4 2,7 13,3 9,4 14,6 13 7 23 12 NW 1026,7 20 60 0,0
14.11.2017 12:00:00 8,6 2,6 12,7 9,4 14,6 9 5 16 9 NW 1027,4 20 60 0,0
14.11.2017 11:00:00 8,2 3,6 8,9 9,5 14,6 2 1 9 5 N 1028,1 20 60 0,0
14.11.2017 10:00:00 4,8 4,4 3,3 9,6 14,6 6 3 11 6 S 1028,3 20 60 0,0
14.11.2017 09:00:00 0,8 0,8 -3,5 9,7 14,6 10 6 12 6 S 1028,5 17 36 0,0
14.11.2017 08:00:00 -0,7 -0,7 -3,6 9,9 14,6 5 3 8 5 S 1028,0 14 0 0,0
14.11.2017 07:00:00 -0,7 -0,8 -2,8 10,0 14,6 6 3 11 6 S 1027,6 19 0 0,0
14.11.2017 06:00:00 0,1 0,0 -1,4 10,1 14,6 9 5 14 7 S 1027,2 20 0 0,0
14.11.2017 05:00:00 0,3 0,2 -1,2 10,3 14,6 10 5 12 7 S 1027,2 20 0 0,0
14.11.2017 04:00:00 0,4 0,1 -1,9 10,4 14,6 10 6 12 6 S 1027,4 20 0 0,0
14.11.2017 03:00:00 0,7 0,3 -1,1 10,5 14,6 8 4 12 6 S 1027,6 20 0 0,0
14.11.2017 02:00:00 1,2 0,3 -1,1 10,7 14,7 8 5 10 5 S 1027,5 20 0 0,0
14.11.2017 01:00:00 1,9 1,2 -1,6 10,8 14,7 3 1 7 4 SSW 1027,4 20 0 0,0
14.11.2017 00:00:00 1,7 0,4 -1,4 10,9 14,7 5 3 7 4 S 1027,9 20 0 0,0
13.11.2017 23:00:00 2,9 0,8 -0,9 11,0 14,6 3 2 5 3 S 1027,8 20 0 0,0
13.11.2017 22:00:00 4,7 1,4 0,7 11,1 14,6 3 2 13 7 W 1027,6 20 0 0,0
13.11.2017 21:00:00 5,1 1,2 1,2 11,2 14,6 4 2 13 7 SW 1027,0 20 0 0,0
13.11.2017 20:00:00 6,1 2,2 1,4 11,3 14,7 6 4 12 6 W 1026,6 20 0 0,0

tt = Température de l'air
td = dewpoint
tt 5cm = Température de l'air 5cm
tt -20cm = Température de l'air -20cm
tt -100cm = Température de l'air -100cm
ff = Vitesse du vent
fx = gusts
dd = Direction du vent
ppp = reduced air pressure
vv = visibility
sd = Ensoleillement
rr = Quantités de précipitations

stations d'obs. à proximité